Find Starlink 32488

NORAD ID: 62125 Int'l Des: 2024-222 Owner: SPXS Country: US Constellation: starlink operational
LEOCIRCULAR

現在のビュー

3D地球を読み込み中...

About Starlink 32488

Starlink 32488 (NORAD 62125) is a starlink constellation satellite (v2 mini) launched Nov 27, 2024 by SPXS of US. It operates in LEO, CIRCULAR orbit with a mass of 730.00 kg.

Starlink 32488について

説明を読み込み中...

次回通過

Passes for default location (London). Set your location on the main map for personalized predictions.

高度履歴

Loading altitude history...

軌道要素

1 62125U 24222M 26171.33785435 .00018872 00000-0 69312-3 0 9993
2 62125 42.9998 276.8280 0001550 266.4327 93.6348 15.27600401 88345
Epoch: Jun 20, 2026 • Age: 12 hours

現在のステータス

高度 482.4 km
速度 7.63 km/s
衛星直下点 14.61°N, 127.84°W
打ち上げ日 Nov 27, 2024
運用期間 1.5 years
タイプ internet

技術仕様

分類 Payload
質量 730.00 kg
乾燥質量 700.00 kg
総質量 730.00 kg
長さ 0.30 m
直径 4.10 m
スパン 29.00 m
形状 Box + pan
製造者 SPXS
バスタイプ Starlink V2M
フェーズステータス In Orbit
所有者/国 SPXS/US

Most Searched